Regional Weather Roundup
Issued by NWS

Home | Current Version | Previous Version | Text Only | Print | Product List | Glossary Off
Versions: 1 2 3 4 5 6 7 8 9 10 11 12 13 14 15 16 17 18 19 20 21 22 23 24 25 26 27 28 29 30 31 32 33 34 35 36 37 38 39 40 41 42 43 44 45 46 47 48 49 50

000
ASUS45 KCYS 261510
RWRWY

WYOMING REGIONAL WEATHER ROUNDUP
NATIONAL WEATHER SERVICE CHEYENNE WY
800 AM MST THU FEB 26 2015

NOTE:  "FAIR" INDICATES FEW OR NO CLOUDS BELOW 12,000 FEET
WITH NO SIGNIFICANT WEATHER AND/OR OBSTRUCTIONS TO VISIBILITY.

WYZ001-261600-
YELLOWSTONE NATIONAL PARK

CITY           SKY/WX    TMP DP  RH WIND       PRES   REMARKS
LK YELLOWSTONE   N/A     -8 -13  78 CALM      29.99R
W YELLOWSTONE  NOT AVBL

$$
WYZ002>013-054>058-071-098>099-261600-
NORTHERN WYOMING

CITY           SKY/WX    TMP DP  RH WIND       PRES   REMARKS
JACKSON        PTCLDY     3   7 100 N9        30.01S WCI -11
CODY           CLOUDY     9   7  92 NE9       30.19R WCI  -5
GREYBULL       CLOUDY    13   3  64 NW14      30.25R WCI  -2
WORLAND        LGT SNOW  14   9  80 N7        30.23R WCI   4
SHERIDAN       CLOUDY     6   0  76 NE10      30.34R WCI  -9
BUFFALO        LGT SNOW   5   2  87 N6        30.23S VSB 1   WCI  -6
GILLETTE       CLOUDY     4  -2  76 NE9       30.30R HAZE    WCI -10
HULETT         CLOUDY     1  -4  78 MISG      30.32R
NEWCASTLE      FAIR       3  -6  66 N6        30.30S WCI  -8

$$
WYZ014>020-022>026-101>103-261600-
CENTRAL WYOMING

CITY           SKY/WX    TMP DP  RH WIND       PRES   REMARKS
BIG PINEY      LGT SNOW  17  12  80 S3        29.99S VSB 1
PINEDALE       FAIR       3   3 100 W3        30.00R
DUBOIS         LGT SNOW   7   3  85 NW7       29.99R WCI  -5
LANDER         SNOW      14  10  84 N5        30.10R VSB 1/2 WCI   6
RIVERTON       LGT SNOW  12   7  80 E13       30.11R WCI  -3
CASPER         LGT SNOW  10   4  76 NE9       30.16R WCI  -3
DOUGLAS        CLOUDY     9   3  77 NE6       30.22R WCI  -1

$$
WYZ021-027>030-104>119-261600-
SOUTHERN WYOMING

CITY           SKY/WX    TMP DP  RH WIND       PRES   REMARKS
EVANSTON       CLOUDY    19  15  84 E12       29.93R WCI   7
FORT BRIDGER   CLOUDY    17  16  95 NE5       29.99R WCI  10
ROCK SPRINGS   CLOUDY    14   9  80 E5        29.99  WCI   6
DIXON          PTSUNNY   14   7  73 E5        30.05R WCI   7
RAWLINS        FAIR      13   9  84 CALM      30.01R
SARATOGA       PTSUNNY   12   9  85 S5        30.01R WCI   4
LARAMIE        CLOUDY     8   6  92 CALM      29.98F
CHEYENNE       FLURRIES   9   3  77 N6        30.10R WCI  -1
TORRINGTON     CLOUDY     8   1  73 NE10      30.28R WCI  -6
PINE BLUFFS    CLOUDY    10   3  72 NE9       30.19R WCI  -2

$$


USA.gov is the U.S. government's official web portal to all federal, state and local government web resources and services.